Curtin, Australia

1:32 PM AWST on March 24, 2017 (GMT +0800)
Curtin

Weather History for YCIN - October, 2013

Change the Weather History Date:

Monday, October 28, 2013

  Actual Average Record
Temperature  
Mean Temperature 94 °F -  
Max Temperature 109 °F - - ()
Min Temperature 80 °F - - ()
Cooling Degree Days 30    
Growing Degree Days 44 (Base 50)    
Moisture  
Dew Point 50 °F    
Average Humidity 24    
Maximum Humidity 70    
Minimum Humidity 4    
Precipitation  
Precipitation 0.00 in - - ()
Sea Level Pressure  
Sea Level Pressure 29.80 in    
Wind  
Wind Speed 9 mph ()    
Max Wind Speed 18 mph    
Max Gust Speed -    
T = Trace of Precipitation, MM = Missing Value Source: Averaged Metar Reports

Daily Weather History Graph

Daily Weather History Graph

Search for Another Location

Airport or City:

Trip Planner

Search our weather history database for the weather conditions in past years. The results will help you decide how hot, cold, wet, or windy it might be!

Date:

Astronomy

Oct. 28, 2013 Rise Set
Actual Time 5:08 AM AWST 5:49 PM AWST
Civil Twilight 4:45 AM AWST 6:11 PM AWST
Nautical Twilight 4:19 AM AWST 6:37 PM AWST
Astronomical Twilight 3:52 AM AWST 7:04 PM AWST
Moon 12:28 AM AWST (10/28) 12:19 PM AWST (10/28)
Length of Visible Light 13h 25m
Length of Day
12h 41m
Last Quarter, 39% of the Moon is Illuminated
Oct 28
Last Quarter
Nov 3
New
Nov 10
First Quarter
Nov 17
Full
Nov 26
Last Quarter

Hourly Weather History & Observations

Time (AWST) Temp. Heat Index Dew Point Humidity Pressure Visibility Wind Dir Wind Speed Gust Speed Precip Events Conditions
12:00 AM 87 °F - 56 °F 24% 29.83 in - SW 10.4 mph - -  
12:00 AM 87.8 °F 86.1 °F 55.4 °F 33% 29.83 in - SW 10.4 mph - N/A   Unknown
1:00 AM 89.6 °F - 48.2 °F 24% 29.80 in - SSW 13.8 mph - N/A   Unknown
2:00 AM 87.8 °F - 48.2 °F 25% 29.80 in - SSW 13.8 mph - N/A   Unknown
3:00 AM 87 °F - 47 °F 15% 29.80 in - SSW 12.7 mph - -  
3:00 AM 86.0 °F - 46.4 °F 25% 29.80 in - SSW 12.7 mph - N/A   Unknown
4:00 AM 84.2 °F - 46.4 °F 27% 29.80 in - SSW 10.4 mph - N/A   Unknown
5:00 AM 82.4 °F - 48.2 °F 30% 29.83 in - South 8.1 mph - N/A   Unknown
6:00 AM 83 °F - 49 °F 20% 29.85 in - SSE 4.6 mph - -  
6:00 AM 84.2 °F - 48.2 °F 29% 29.86 in - SSE 4.6 mph - N/A   Unknown
7:00 AM 91.4 °F - 46.4 °F 21% 29.86 in - South 12.7 mph - N/A   Unknown
8:00 AM 95.0 °F - 44.6 °F 18% 29.86 in - SSW 18.4 mph - N/A   Unknown
9:00 AM 97 °F - 42 °F 8% 29.86 in - SSE 13.8 mph - -  
9:00 AM 96.8 °F - 42.8 °F 16% 29.86 in - SSE 13.8 mph - N/A   Unknown
10:00 AM 100.4 °F - 41.0 °F 13% 29.83 in - SSE 5.8 mph - N/A   Unknown
11:00 AM 102.2 °F - 41.0 °F 12% 29.83 in - SSE 8.1 mph - N/A   Unknown
12:00 PM 104 °F - 42 °F 6% 29.78 in - South 8.1 mph - -  
12:00 PM 104.0 °F - 41.0 °F 12% 29.80 in - South 8.1 mph - N/A   Unknown
1:00 PM 105.8 °F - 41.0 °F 11% 29.74 in - East 6.9 mph - N/A   Unknown
2:00 PM 107.6 °F - 39.2 °F 10% 29.71 in - West 4.6 mph - N/A   Unknown
3:00 PM 107 °F - 36 °F 4% 29.70 in - NNE 6.9 mph - -  
3:00 PM 107.6 °F - 35.6 °F 8% 29.71 in - NNE 6.9 mph - N/A   Unknown
4:00 PM 105.8 °F - 41.0 °F 11% 29.71 in - NNW 6.9 mph - N/A   Unknown
5:00 PM 102.2 °F - 46.4 °F 15% 29.71 in - NW 11.5 mph - N/A   Unknown
5:56 PM 93.2 °F 90.8 °F 53.6 °F 26% 29.74 in - NW 9.2 mph - N/A   Unknown
6:00 PM 93 °F - 53 °F 17% 29.74 in - NW 9.2 mph - -  
6:00 PM 93.2 °F 90.8 °F 53.6 °F 26% 29.74 in - NW 9.2 mph - N/A   Unknown
7:00 PM 91.4 °F 89.9 °F 57.2 °F 31% 29.77 in - North 6.9 mph - N/A   Unknown
8:00 PM 87.8 °F 89.4 °F 64.4 °F 46% 29.83 in - North 15.0 mph - N/A   Unknown
9:00 PM 87 °F - 70 °F 49% 29.85 in - North 11.5 mph - -  
9:00 PM 87.8 °F 92.6 °F 69.8 °F 55% 29.86 in - North 11.5 mph - N/A   Unknown
10:00 PM 84.2 °F 89.6 °F 71.6 °F 66% 29.86 in - North 10.4 mph - N/A   Unknown
11:00 PM 84.2 °F 90.9 °F 73.4 °F 70% 29.86 in - North 6.9 mph - N/A   Unknown